{"data":{"norad_id":62601,"intl_designator":"2025-008Q","name":"STARLINK-32767","alt_names":[],"object_type":"PAYLOAD","status":"ACTIVE","operator":null,"country":"US","launch_date":"2025-01-13","launch_site_code":"AFETR","launch_vehicle":null,"mission":null,"orbit_class":"UNKNOWN","rcs_meters":null,"size_class":null,"mass_kg":null,"dimensions":null,"purposes":["comms"],"wikipedia_slug":null,"has_3d_model":false,"image_url":null,"decayed_at":null,"tle_current":{"epoch":"2026-05-25T04:13:05.480832Z","epoch_age_seconds":60697,"freshness":"FRESH","line1":"1 62601U 25008Q   26145.17575788  .00020460  00000+0  75062-3 0  9990","line2":"2 62601  42.9990 205.8192 0001216 258.4349 101.6366 15.27595082 77328","mean_motion":15.27595082,"eccentricity":0.0001216,"inclination_deg":42.999,"raan_deg":205.8192,"arg_perigee_deg":258.4349,"mean_anomaly_deg":101.6366,"bstar":0.00075062,"rev_number":7732,"period_min":94.265818014724,"perigee_km":482.16962073974,"apogee_km":483.83825021525,"semimajor_km":6861.1409354775,"source":"CELESTRAK","updated_at":"2026-05-25T13:38:19.736131Z"}}}